HB9FVK-10 Weather Reports


Display with metric or nautical units.
time (UTC)temp
F
wind
direction
speed
MPH
gust
MPH
rain 1hr
in
rain 24hr
in
rain mn
in
humidity
%
barometer
mb
20260503213102 55 135 4.0 6.0 0.00 0.00 0.00 85 1020.4
20260503212100 55 137 3.0 4.0 0.00 0.00 0.00 85 1020.3
20260503211119 56 142 4.0 5.0 0.00 0.00 0.00 84 1020.1
20260503210058 55 158 4.0 6.0 0.00 0.00 0.00 84 1020.1
20260503205057 55 154 4.0 6.0 0.00 0.00 0.00 84 1020.1
20260503204056 55 127 4.0 6.0 0.00 0.00 0.00 85 1020.0
20260503203054 55 175 3.0 5.0 0.00 0.00 0.00 84 1020.3
20260503202053 56 140 6.0 7.0 0.00 0.00 0.00 84 1020.4
20260503201051 56 143 4.0 6.0 0.00 0.00 0.00 85 1020.5
20260503200049 56 143 7.0 10.0 0.00 0.00 0.00 85 1020.5
20260503195049 56 144 4.0 7.0 0.00 0.00 0.00 86 1020.4
20260503194047 57 43 2.0 4.0 0.00 0.00 0.00 86 1020.4
20260503193046 57 134 3.0 4.0 0.00 0.00 0.00 86 1020.3
20260503192045 58 138 3.0 6.0 0.00 0.00 0.00 83 1020.1
20260503191043 58 88 2.0 3.0 0.00 0.00 0.00 77 1020.0
20260503185041 59 123 2.0 4.0 0.00 0.00 0.00 82 1019.7
20260503184040 60 75 3.0 4.0 0.00 0.00 0.00 83 1019.6
20260503183038 60 96 3.0 5.0 0.00 0.00 0.00 82 1019.5
20260503182037 60 118 4.0 5.0 0.00 0.00 0.00 81 1019.5
20260503181035 61 158 5.0 6.0 0.00 0.00 0.00 80 1019.5
20260503180034 61 139 5.0 6.0 0.00 0.00 0.00 79 1019.3
20260503175053 61 154 4.0 6.0 0.00 0.00 0.00 78 1019.3
20260503174032 62 125 5.0 7.0 0.00 0.00 0.00 78 1019.5
20260503173030 62 132 3.0 4.0 0.00 0.00 0.00 75 1019.6
20260503172029 62 172 2.0 3.0 0.00 0.00 0.00 74 1019.6
20260503171028 62 135 3.0 4.0 0.00 0.00 0.00 75 1019.8
20260503150112 67 345 4.0 8.0 0.00 0.00 0.00 51 1019.5
20260503140105 74 342 2.0 6.0 0.00 0.00 0.00 38 1018.5
20260503131059 74 308 4.0 6.0 0.00 0.00 0.00 36 1018.8
20260503081022 64 322 2.0 6.0 0.00 0.00 0.00 53 1021.5
20260503072016 60 146 1.0 3.0 0.00 0.00 0.00 68 1021.7
20260503071136 60 52 3.0 5.0 0.00 0.00 0.00 70 1021.7
20260503070114 59 77 4.0 6.0 0.00 0.00 0.00 72 1021.7
20260503060128 55 136 3.0 4.0 0.00 0.00 0.00 79 1021.6
20260503055106 55 136 3.0 4.0 0.00 0.00 0.00 79 1021.5
20260503054125 55 136 3.0 4.0 0.00 0.00 0.00 80 1021.5
20260503053104 54 128 3.0 6.0 0.00 0.00 0.00 81 1021.4
20260503052103 53 129 3.0 6.0 0.00 0.00 0.00 83 1021.2
20260503051102 52 136 3.0 6.0 0.00 0.00 0.00 85 1021.3
20260503050100 52 128 3.0 6.0 0.00 0.00 0.00 84 1021.3
20260503045059 52 133 3.0 4.0 0.00 0.00 0.00 84 1021.3
20260503044058 52 132 4.0 6.0 0.00 0.00 0.00 84 1021.4
20260503043057 52 147 4.0 7.0 0.00 0.00 0.00 85 1021.3
20260503042057 52 148 4.0 6.0 0.00 0.00 0.00 86 1021.3
20260503041055 52 144 6.0 9.0 0.00 0.00 0.00 86 1021.2
20260503040054 52 25 3.0 8.0 0.00 0.00 0.00 85 1021.2
20260503035052 52 63 1.0 5.0 0.00 0.00 0.00 85 1021.2
20260503034051 52 97 2.0 6.0 0.00 0.00 0.00 85 1021.2
20260503033111 52 307 2.0 4.0 0.00 0.00 0.00 84 1021.3
20260503032049 52 168 3.0 5.0 0.00 0.00 0.00 84 1021.2
20260503031049 52 134 4.0 5.0 0.00 0.00 0.00 84 1021.3
20260503025046 53 111 5.0 6.0 0.00 0.00 0.00 84 1021.0
20260503024125 53 137 6.0 6.0 0.00 0.00 0.00 82 1021.1
20260503023043 53 165 5.0 7.0 0.00 0.00 0.00 84 1021.4
20260503022042 52 151 5.0 6.0 0.00 0.00 0.00 85 1021.5
20260503021041 53 153 5.0 6.0 0.00 0.00 0.00 84 1021.7
20260503020039 53 132 4.0 4.0 0.00 0.00 0.00 84 1021.7
20260503015119 53 128 2.0 3.0 0.00 0.00 0.00 83 1021.7
20260503014039 53 111 2.0 2.0 0.00 0.00 0.00 83 1021.8
20260503013036 53 107 1.0 2.0 0.00 0.00 0.00 82 1021.9
20260503012035 54 107 2.0 2.0 0.00 0.00 0.00 81 1021.8
20260503011034 54 148 4.0 5.0 0.00 0.00 0.00 81 1021.9
20260503010033 54 136 3.0 4.0 0.00 0.00 0.00 81 1021.8
20260503005032 54 112 2.0 3.0 0.00 0.00 0.00 81 1022.0
20260503004030 55 132 1.0 2.0 0.00 0.00 0.00 80 1022.0
20260503003029 55 111 3.0 5.0 0.00 0.00 0.00 79 1022.1
20260503002029 55 133 5.0 6.0 0.00 0.00 0.00 79 1022.2
20260503001027 56 148 5.0 6.0 0.00 0.00 0.00 78 1022.3
20260503000026 56 156 3.0 4.0 0.00 0.00 0.00 78 1022.2
20260502235025 56 127 4.0 5.0 0.00 0.00 0.00 78 1022.3
20260502234024 56 143 4.0 5.0 0.00 0.00 0.00 77 1022.3
20260502233023 56 139 4.0 5.0 0.00 0.00 0.00 78 1022.3
20260502232043 57 121 2.0 2.0 0.00 0.00 0.00 76 1022.4
20260502231020 57 115 3.0 4.0 0.00 0.00 0.00 75 1022.3
20260502230019 58 126 4.0 5.0 0.00 0.00 0.00 73 1022.3
20260502225018 59 166 3.0 4.0 0.00 0.00 0.00 73 1022.3
20260502224017 59 139 4.0 5.0 0.00 0.00 0.00 73 1022.3
20260502223016 59 154 2.0 4.0 0.00 0.00 0.00 72 1022.3
20260502222155 60 130 3.0 5.0 0.00 0.00 0.00 72 1022.3
20260502221114 60 171 2.0 3.0 0.00 0.00 0.00 71 1022.3
20260502220112 61 117 4.0 4.0 0.00 0.00 0.00 70 1022.2
20260502215111 62 136 2.0 3.0 0.00 0.00 0.00 67 1022.2
20260502214110 62 169 1.0 2.0 0.00 0.00 0.00 67 1022.1